Terminal Aerodrome Forecast
Issued by NWS

Home | Current Version | Previous Version | Text Only | Print | Product List | Glossary On
Versions: 1 2 3 4 5 6 7 8 9 10 11 12 13 14 15
295
FTUS44 KMAF 292322
TAFFST
TAF
KFST 292322Z 3000/3024 28019G27KT P6SM FEW150
     FM300100 26010KT P6SM SKC
     FM302100 21012KT P6SM SKC=

USA.gov is the U.S. government's official web portal to all federal, state and local government web resources and services.